Home > Weather > Nagano > Past weeks

Flag for Japan Weather for the Past 2 Weeks in Nagano, Japan

Now
37 °F

Chilly.


Feels Like: 31 °F
Forecast: 28 / 40 °F
Wind: 9 mph from East

Location: Nagano

Current Time: Feb 15, 2016 at 7:07:31 AM

Latest Report: Feb 15, 2016 at 5:00 AM


Visibility: N/A

Pressure: 29.68 "Hg

Humidity: 88%

Dew point: 34 °F

Location of NaganoLocation

Historic Weather in Nagano — Graph

°F

Nagano Temperature Yesterday

Maximum temperature yesterday: 59 °F (at 1:00 PM)
Minimum temperature yesterday: 43 °F (at 11:00 PM)
Average temperature yesterday: 51 °F

High & Low Weather Summary for the Past Weeks

 TemperatureHumidityPressure
High59 °F (Feb 13, 2:00 PM)100% (Feb 14, 9:00 AM)30.55 "Hg (Feb 14, 9:00 AM)
Low19 °F (Feb 8, 5:00 AM)38% (Feb 4, 3:00 PM)29.38 "Hg (Feb 14, 1:00 PM)
Average35 °F77%30.12 "Hg
* Reported Jan 31 5:00 AM — Feb 15 5:00 AM, Nagano, Weather by CustomWeather, © 2016

Note: Actual official high and low records may vary slightly from our data, if they occured in-between our weather recording intervals... More about our weather records

Advertising

Nagano Weather History for the Previous 24 Hours

 ConditionsComfort  
Time TempWeatherWind HumidityBarometerVisibility
5:00 AM
Mon, Feb 15
37 °FChilly.9 mph88%29.68 "HgN/A
4:00 AM38 °FChilly.9 mph89%29.66 "HgN/A
3:00 AM39 °FSprinkles. Overcast.10 mph90%29.64 "Hg6 mi
2:00 AM42 °FQuite cool.10 mph80%29.63 "HgN/A
1:00 AM42 °FQuite cool.7 mph81%29.62 "HgN/A
12:00 AM43 °FQuite cool.6 mph85%29.63 "HgN/A
11:00 PM
Sun, Feb 14
43 °FQuite cool.9 mph89%29.64 "HgN/A
10:00 PM45 °FQuite cool.9 mph86%29.60 "HgN/A
9:00 PM46 °FOvercast.8 mph82%29.60 "Hg19 mi
8:00 PM47 °FCool.6 mph82%29.60 "HgN/A
7:00 PM47 °FCool.6 mph82%29.56 "HgN/A
6:00 PM49 °FCool.5 mph85%29.55 "HgN/A
5:00 PM51 °FCool.9 mph87%29.50 "HgN/A
4:00 PM56 °FCool.8 mph84%29.44 "HgN/A
3:00 PM57 °FSprinkles. Partly sunny.5 mph84%29.41 "Hg12 mi
2:00 PM57 °FCool.6 mph86%29.41 "HgN/A
1:00 PM59 °FCool.6 mph84%29.38 "HgN/A
12:00 PM57 °FCool.5 mph85%29.41 "HgN/A
10:00 AM49 °FCool.1 mph100%29.50 "HgN/A
9:00 AM48 °FSprinkles. Low clouds.3 mph100%29.54 "Hg4 mi
Weather by CustomWeather, © 2016

See weather overviewHow to use our weather pages